Location: *
(39.6167°S, 171.5333°W)
Time: 18:49:57
(UTC+00:00)

MINOTAUR IV R/B - Pass Details

Date: 13 May 2021
Orbit: 623 x 640 km, 72.0° (Epoch: 17 June)

Event Time Altitude Azimuth Distance (km) Brightness Sun altitude
Exits shadow 16:19:31 73° 207° (SSW) 667 4.5 -23.6°
Maximum altitude 16:19:58 88° 292° (WNW) 639 4.5 -23.6°
Drops below altitude 10° 16:24:28 10° 19° (NNE) 2,000 7.5 -22.7°
Sets 16:26:42 0° 19° (NNE) 2,898 8.3 -22.3°
